CAPE
0 0 0 0 0 0 0 0 0 0 65 82 96 53 188 328 192 151 625 632 229 363 579 909 1317 1621 1754 1943 2179 2443 2508 2597 2380 2349 2169 2040 1941 1721 1793 1366 1033 835 904 992 839 1502 1862 1451 1432
0 0 0 0 0 0 0 0 0 84 254 260 279 284 404 584 624 718 594 668 405 325 512 894 1229 1390 1541 1678 1920 2131 2343 2580 2840 2650 2490 2253 2032 1734 1783 1085 853 801 909 1275 1374 1359 1850 1427 1193
0 0 0 0 0 0 0 31 136 279 226 260 438 509 551 752 806 764 780 779 635 418 560 1065 1155 1257 1472 1595 1694 1897 2114 2313 2570 2784 2667 2544 2364 2180 1884 1370 1146 1097 1080 1196 1226 1451 1490 1441 816
0 0 0 0 0 0 0 68 173 200 242 405 545 575 630 796 932 897 867 806 713 330 441 972 1098 1280 1470 1599 1555 1575 1766 2118 2169 2208 2414 2433 2326 2181 1965 1524 1040 759 971 1113 1300 1441 1292 927 977
0 0 0 0 0 0 0 0 20 33 101 189 223 570 739 868 962 896 938 816 289 302 355 780 1064 1335 1525 1463 1461 1648 1747 1794 2011 2142 2138 2157 1969 1658 1301 1133 1330 1236 1109 1357 1459 1357 1215 1033 861
0 0 0 0 0 0 0 0 0 0 63 297 326 347 615 995 976 1013 1046 533 342 394 484 552 929 1071 1308 1396 1289 1321 1446 1535 1484 1678 1992 2000 1814 1768 1631 1335 1009 1026 1228 1494 971 728 707 438 426
0 0 0 0 0 0 0 0 0 0 0 15 200 456 744 1127 998 1103 1189 553 452 528 574 614 664 771 881 841 874 981 1233 1344 1275 1166 1192 1143 1215 1235 1120 1129 1154 1007 1020 974 807 704 834 702 576
0 0 0 0 0 0 0 0 0 0 0 15 103 485 664 1162 1213 1306 1314 834 806 895 878 1015 903 805 501 420 533 596 892 1125 1110 882 688 527 520 533 480 360 638 513 320 285 308 377 408 407 387
0 0 0 0 0 0 0 0 0 0 0 0 23 204 161 977 1350 1449 1492 1174 1067 1182 1198 1157 1047 969 679 342 257 432 615 837 1012 795 507 299 209 80 61 150 285 228 124 73 61 95 203 286 288
0 0 0 0 0 0 0 0 0 0 0 8 34 60 736 1059 1425 1540 1602 1492 1411 1371 1416 1273 1190 1121 831 506 367 324 424 437 504 755 414 265 299 108 7 0 5 1 0 0 0 0 0 0 8
0 0 0 0 0 0 0 0 0 0 0 0 0 155 882 1025 1193 1511 1597 1653 1606 1569 1609 1373 1242 1214 973 771 344 384 488 456 432 355 400 303 383 212 14 0 0 0 0 0 0 0 0 0 0
0 0 0 0 0 0 0 0 0 0 0 0 0 193 778 1161 1145 1039 1138 1426 1536 1646 1711 1503 1256 1208 984 731 586 365 579 483 432 384 326 237 176 57 0 0 0 0 0 0 0 0 0 0 0
0 0 0 0 0 0 0 0 0 0 0 0 0 162 681 1117 1087 1053 927 1100 1241 1293 1491 803 398 289 228 273 283 285 599 667 467 438 239 62 16 0 0 0 0 0 0 0 0 0 0 0 0
0 0 0 0 0 0 0 0 0 0 0 0 0 21 760 997 965 574 64 207 645 699 573 28 0 59 4 3 106 327 594 391 344 420 190 0 0 0 0 0 0 0 0 0 0 0 0 0 0
0 0 0 0 0 0 0 0 0 0 0 0 0 0 14 314 309 7 26 159 145 322 246 0 0 0 0 0 0 0 0 0 9 11 0 0 0 0 0 0 0 0 0 0 0 0 0 0 0
0 0 0 0 0 0 0 0 0 0 0 0 0 0 0 151 237 197 191 0 0 95 57 0 0 0 0 0 0 0 0 0 0 0 0 0 0 0 0 0 0 0 0 0 0 0 0 0 0
0 0 0 0 0 0 0 0 0 0 0 0 0 0 0 19 85 0 0 0 0 35 0 0 0 0 0 0 0 0 0 0 0 0 0 0 0 0 0 0 0 0 0 0 0 0 0 0 0
0 0 0 0 0 0 0 0 0 0 0 0 0 0 0 0 0 0 0 0 0 0 0 0 0 0 0 0 0 0 0 0 0 0 0 0 0 0 0 0 0 0 0 0 0 0 0 0 0
0 0 0 0 0 0 0 0 0 0 0 0 0 0 0 0 0 0 0 0 0 0 0 0 0 0 0 0 0 0 0 0 0 0 0 0 0 0 0 0 0 0 0 0 0 0 0 0 0
0 0 0 0 0 0 0 0 0 0 0 0 0 0 0 0 0 0 0 0 0 0 0 0 0 0 0 0 0 0 0 0 0 0 0 0 0 0 0 0 0 0 0 0 0 0 0 0 0
0 0 0 0 0 0 0 0 0 0 0 0 0 0 0 0 0 0 0 0 0 0 0 0 0 0 0 0 0 0 0 0 0 0 0 0 0 0 0 0 0 0 0 0 0 0 0 0 0
0 0 0 0 0 0 0 0 0 0 0 0 0 0 0 0 0 0 0 0 0 0 0 0 0 0 0 0 0 0 0 0 2 1 0 0 0 0 0 0 0 0 0 0 5 0 4 0 0
0 0 0 0 0 0 0 0 0 0 0 0 0 0 0 0 0 0 0 0 0 0 0 0 0 0 0 0 0 1 4 11 9 0 0 0 0 0 0 0 0 0 0 0 4 4 14 3 3
0 0 0 0 0 0 0 0 0 0 0 0 0 0 0 0 0 0 0 0 0 0 0 0 0 0 0 1 7 13 9 0 0 0 0 0 0 0 0 0 0 0 0 0 0 1 11 6 2
0 0 0 0 0 0 0 0 0 0 0 0 0 0 0 0 0 0 0 0 0 0 0 0 0 2 7 13 21 7 0 0 0 0 0 0 0 0 0 0 0 0 0 0 0 0 25 35 9
0 0 0 0 0 0 0 0 0 0 0 0 0 0 0 0 0 0 0 0 0 0 0 1 3 1 1 0 0 0 0 0 0 0 0 0 0 0 0 0 0 0 0 2 7 20 43 26 1
0 0 0 0 0 0 0 0 0 0 0 0 0 0 0 0 0 0 0 1 0 0 0 0 0 0 0 0 0 0 0 0 0 0 0 0 0 0 0 0 0 0 14 23 47 51 44 4 1
0 0 0 0 0 0 0 0 0 0 0 0 0 0 0 0 0 0 0 0 0 2 1 1 1 1 0 0 0 0 0 0 0 0 0 0 0 0 0 0 3 6 11 4 0 3 0 0 0
0 0 0 0 0 0 0 0 0 0 0 0 0 0 0 0 0 0 0 0 0 5 6 0 0 0 0 0 0 0 0 0 0 0 0 0 0 0 0 0 0 0 1 0 0 0 0 0 0
0 0 0 0 0 0 0 0 0 0 0 0 0 0 0 0 0 0 0 0 0 0 0 0 0 0 0 0 0 0 0 0 0 0 0 0 0 0 0 0 0 0 0 0 0 0 0 0 0
CIN
-0 -0 -0 -0 -0 -0 -0 -0 -0 -0 -115 -160 -179 -173 -196 -180 -195 -113 -71 -68 -250 -266 -145 -27 -3 -0 -1 -6 -8 -2 -0 -0 -8 -7 -21 -33 -31 -38 -21 -45 -11 -96 -98 -78 -94 -25 -12 -45 -48
-0 -0 -0 -0 -0 -0 -0 -0 -0 -99 -134 -124 -116 -140 -141 -77 -79 -71 -116 -82 -181 -316 -227 -75 -13 -45 -23 -28 -41 -16 -18 -6 -0 -2 -7 -8 -10 -19 -7 -74 -120 -123 -99 -41 -42 -36 -1 -19 -48
-0 -0 -0 -0 -0 -0 -0 -50 -111 -122 -216 -76 -118 -120 -110 -54 -68 -86 -91 -100 -131 -281 -257 -102 -98 -115 -88 -89 -88 -69 -51 -27 -10 -0 -0 -0 -0 -1 -8 -9 -7 -49 -41 -56 -50 -26 -13 -27 -72
-0 -0 -0 -0 -0 -0 -0 -64 -99 -117 -100 -99 -109 -103 -89 -66 -73 -81 -104 -131 -134 -409 -355 -177 -172 -153 -131 -130 -141 -139 -114 -73 -58 -43 -0 -0 -0 -0 -6 -39 -77 -122 -69 -33 -12 -8 -8 -31 -25
-0 -0 -0 -0 -0 -0 -0 -0 -84 -90 -78 -101 -116 -99 -89 -83 -88 -111 -120 -165 -434 -490 -447 -296 -217 -179 -151 -157 -159 -120 -78 -66 -39 -25 -19 -10 -15 -32 -64 -87 -47 -49 -45 -8 -0 -0 -3 -10 -11
-0 -0 -0 -0 -0 -0 -0 -0 -0 -0 -119 -131 -145 -155 -109 -85 -112 -112 -122 -220 -419 -427 -409 -375 -230 -201 -138 -112 -126 -100 -78 -57 -52 -13 -0 -0 -3 -7 -20 -52 -85 -82 -37 -2 -26 -50 -60 -79 -62
-0 -0 -0 -0 -0 -0 -0 -0 -0 -0 -0 -136 -174 -134 -105 -66 -101 -82 -88 -272 -337 -343 -219 -137 -257 -213 -200 -214 -183 -144 -85 -63 -66 -65 -44 -45 -42 -37 -45 -39 -34 -50 -45 -41 -56 -67 -20 -29 -25
-0 -0 -0 -0 -0 -0 -0 -0 -0 -0 -0 -259 -154 -132 -92 -77 -75 -48 -72 -65 -85 -65 -63 -63 -69 -78 -107 -259 -241 -214 -137 -75 -65 -82 -111 -161 -154 -152 -162 -181 -109 -116 -164 -172 -172 -155 -124 -97 -70
-0 -0 -0 -0 -0 -0 -0 -0 -0 -0 -0 -0 -235 -186 -137 -98 -72 -38 -38 -109 -48 -46 -46 -59 -64 -75 -83 -131 -163 -240 -170 -122 -76 -95 -142 -185 -183 -258 -280 -254 -176 -207 -272 -329 -296 -262 -191 -143 -123
-0 -0 -0 -0 -0 -0 -0 -0 -0 -0 -0 -242 -238 -233 -92 -85 -59 -44 -28 -25 -56 -46 -38 -52 -64 -65 -74 -82 -121 -118 -83 -122 -147 -97 -138 -140 -102 -160 -272 -0 -145 -175 -0 -0 -0 -0 -0 -0 -146
-0 -0 -0 -0 -0 -0 -0 -0 -0 -0 -0 -0 -0 -206 -123 -98 -90 -52 -34 -35 -48 -56 -49 -51 -70 -78 -80 -64 -103 -95 -76 -65 -73 -84 -105 -98 -72 -79 -206 -0 -0 -0 -0 -0 -0 -0 -0 -0 -0
-0 -0 -0 -0 -0 -0 -0 -0 -0 -0 -0 -0 -0 -193 -130 -89 -71 -62 -60 -50 -54 -60 -68 -78 -109 -112 -104 -88 -75 -93 -64 -50 -48 -60 -70 -84 -91 -145 -0 -0 -0 -0 -0 -0 -0 -0 -0 -0 -0
-0 -0 -0 -0 -0 -0 -0 -0 -0 -0 -0 -0 -0 -231 -115 -77 -71 -65 -44 -45 -42 -62 -81 -79 -185 -193 -152 -111 -99 -92 -51 -33 -40 -33 -41 -88 -119 -0 -0 -0 -0 -0 -0 -0 -0 -0 -0 -0 -0
-0 -0 -0 -0 -0 -0 -0 -0 -0 -0 -0 -0 -0 -86 -128 -92 -77 -77 -192 -129 -75 -48 -60 -121 -0 -215 -47 -90 -138 -76 -39 -41 -41 -19 -13 -28 -0 -0 -0 -0 -0 -0 -0 -0 -0 -0 -0 -0 -0
-0 -0 -0 -0 -0 -0 -0 -0 -0 -0 -0 -0 -0 -0 -187 -163 -131 -147 -179 -80 -59 -87 -47 -0 -0 -0 -0 -0 -0 -0 -0 -0 -5 -2 -0 -0 -0 -0 -0 -0 -0 -0 -0 -0 -0 -0 -0 -0 -0
-0 -0 -0 -0 -0 -0 -0 -0 -0 -0 -0 -0 -0 -0 -0 -148 -103 -101 -97 -0 -0 -86 -49 -0 -0 -0 -0 -0 -0 -0 -0 -0 -0 -0 -0 -0 -0 -0 -0 -0 -0 -0 -0 -0 -0 -0 -0 -0 -0
-0 -0 -0 -0 -0 -0 -0 -0 -0 -0 -0 -0 -0 -0 -0 -198 -129 -0 -0 -0 -37 -118 -0 -0 -0 -0 -0 -0 -0 -0 -0 -0 -0 -0 -0 -0 -0 -0 -0 -0 -0 -0 -0 -0 -0 -0 -0 -0 -0
-0 -0 -0 -0 -0 -0 -0 -0 -0 -0 -0 -0 -0 -0 -0 -0 -0 -0 -0 -0 -0 -0 -0 -0 -0 -0 -0 -0 -0 -0 -0 -0 -0 -0 -0 -0 -0 -0 -0 -0 -0 -0 -0 -0 -0 -0 -0 -0 -0
-0 -0 -0 -0 -0 -0 -0 -0 -0 -0 -0 -0 -0 -0 -0 -0 -0 -0 -0 -0 -0 -0 -0 -0 -0 -0 -0 -0 -0 -0 -0 -0 -0 -0 -0 -0 -0 -0 -0 -0 -0 -0 -0 -0 -0 -0 -0 -0 -0
-0 -0 -0 -0 -0 -0 -0 -0 -0 -0 -0 -0 -0 -0 -0 -0 -0 -0 -0 -0 -0 -0 -0 -0 -0 -0 -0 -0 -0 -0 -0 -0 -0 -0 -0 -0 -0 -0 -0 -0 -0 -0 -0 -0 -0 -0 -0 -0 -0
-0 -0 -0 -0 -0 -0 -0 -0 -0 -0 -0 -0 -0 -0 -0 -0 -0 -0 -0 -0 -0 -0 -0 -0 -0 -0 -0 -0 -0 -0 -0 -0 -0 -0 -0 -0 -0 -0 -0 -0 -0 -0 -0 -0 -0 -0 -0 -0 -0
-0 -0 -0 -0 -0 -0 -0 -0 -0 -0 -0 -0 -0 -0 -0 -0 -0 -0 -0 -0 -0 -0 -0 -0 -0 -0 -0 -0 -0 -0 -0 -0 -3 -8 -0 -0 -0 -0 -0 -0 -0 -0 -0 -0 -0 -0 -2 -0 -0
-0 -0 -0 -0 -0 -0 -0 -0 -0 -0 -0 -0 -0 -0 -0 -0 -0 -0 -0 -0 -0 -0 -0 -0 -0 -0 -0 -0 -0 -1 -3 -3 -2 -1 -0 -0 -0 -0 -0 -0 -0 -0 -0 -0 -2 -0 -5 -1 -1
-0 -0 -0 -0 -0 -0 -0 -0 -0 -0 -0 -0 -0 -0 -0 -0 -0 -0 -0 -0 -0 -0 -0 -0 -0 -0 -0 -1 -2 -2 -1 -0 -0 -0 -0 -0 -0 -0 -0 -0 -0 -0 -0 -0 -0 -1 -6 -1 -1
-0 -0 -0 -0 -0 -0 -0 -0 -0 -0 -0 -0 -0 -0 -0 -0 -0 -0 -0 -0 -0 -0 -0 -0 -0 -1 -2 -1 -2 -5 -0 -0 -0 -0 -0 -0 -0 -0 -0 -0 -0 -0 -0 -0 -0 -0 -0 -0 -2
-0 -0 -0 -0 -0 -0 -0 -0 -0 -0 -0 -0 -0 -0 -0 -0 -0 -0 -0 -0 -0 -0 -0 -1 -1 -2 -2 -0 -0 -0 -0 -0 -0 -0 -0 -0 -0 -0 -0 -0 -0 -0 -0 -2 -2 -2 -0 -0 -1
-0 -0 -0 -0 -0 -0 -0 -0 -0 -0 -0 -0 -0 -0 -0 -0 -0 -0 -2 -1 -0 -0 -0 -0 -0 -0 -0 -0 -0 -0 -0 -0 -0 -0 -0 -0 -0 -0 -0 -0 -0 -0 -0 -0 -0 -0 -4 -52 -4
-0 -0 -0 -0 -0 -0 -0 -0 -0 -0 -0 -0 -0 -0 -0 -0 -0 -0 -0 -0 -0 -3 -4 -2 -3 -1 -0 -0 -0 -0 -0 -0 -0 -0 -0 -0 -0 -0 -0 -0 -0 -0 -0 -0 -0 -1 -0 -0 -0
-0 -0 -0 -0 -0 -0 -0 -0 -0 -0 -0 -0 -0 -0 -0 -0 -0 -0 -0 -2 -0 -2 -3 -0 -0 -0 -0 -0 -0 -0 -0 -0 -0 -0 -0 -0 -0 -0 -0 -0 -0 -0 -0 -0 -0 -0 -0 -0 -0
-0 -0 -0 -0 -0 -0 -0 -0 -0 -0 -0 -0 -0 -0 -0 -0 -0 -0 -0 -0 -0 -0 -0 -0 -0 -0 -0 -0 -0 -0 -0 -0 -0 -0 -0 -0 -0 -0 -0 -0 -0 -0 -0 -0 -0 -0 -0 -0 -0
Wind_Speed
nan nan nan nan nan nan nan nan nan nan nan nan nan nan 25 21 22 22 22 30 34 32 33 33 29 33 37 39 30 29 31 34 38 33 34 36 35 36 38 42 39 38 34 29 25 21 25 26 27
nan nan nan nan nan nan nan nan nan nan 25 21 21 18 20 21 23 26 28 31 37 38 33 29 31 32 39 32 30 32 36 41 39 41 43 41 38 36 37 36 33 32 31 27 27 24 22 22 22
nan nan nan nan nan nan nan nan 26 23 19 17 18 20 21 24 24 28 33 34 29 23 24 24 21 25 25 26 31 31 38 40 40 42 41 41 39 37 35 27 23 26 24 21 25 27 23 24 18
nan nan nan nan nan nan nan nan 21 21 17 23 20 22 22 22 28 29 26 28 28 24 21 19 23 28 29 34 43 43 42 42 41 39 35 33 34 34 29 25 25 26 24 22 21 17 23 23 19
nan nan nan nan nan nan nan nan nan nan 14 11 11 12 13 12 20 26 25 24 24 22 20 26 31 34 37 40 39 35 32 32 31 30 29 28 27 25 24 23 21 21 20 21 20 18 19 19 20
nan nan nan nan nan nan nan nan nan nan nan 11 14 13 11 14 20 18 19 17 18 22 22 26 27 30 28 25 26 24 25 26 26 26 27 26 26 27 25 25 23 21 20 19 21 22 21 20 20
nan nan nan nan nan nan nan nan nan nan nan nan 15 13 12 18 18 19 17 20 21 22 25 23 23 24 25 24 24 25 22 21 19 19 20 21 23 23 23 21 21 24 26 27 23 19 14 15 19
nan nan nan nan nan nan nan nan nan nan nan nan 10 13 12 15 17 12 12 15 15 12 12 14 13 13 13 12 12 14 15 17 17 18 18 18 17 17 17 17 18 20 22 23 25 23 21 22 24
nan nan nan nan nan nan nan nan nan nan nan nan nan 15 15 14 14 12 11 11 14 13 13 15 17 17 17 15 15 17 19 21 22 24 26 25 23 nan nan 25 26 26 26 nan nan nan 26 25 24
nan nan nan nan nan nan nan nan nan nan nan nan nan nan 7 10 14 16 15 16 15 16 16 17 19 19 18 18 22 23 23 23 25 27 27 27 26 26 nan nan nan nan nan nan nan nan nan nan nan
nan nan nan nan nan nan nan nan nan nan nan nan nan 11 10 8 9 13 14 17 17 18 18 21 20 18 18 17 18 19 22 23 24 26 28 28 27 26 nan nan nan nan nan nan nan nan nan nan nan
nan nan nan nan nan nan nan nan nan nan nan nan nan 16 16 17 17 17 17 18 20 20 22 21 20 19 18 19 22 23 24 25 25 26 28 29 31 nan nan nan nan nan nan nan nan nan nan nan nan
nan nan nan nan nan nan nan nan nan nan nan nan nan 15 19 19 16 12 12 13 16 19 20 23 24 24 23 23 22 24 25 27 28 29 32 nan nan nan nan nan nan nan nan nan nan nan nan nan nan
nan nan nan nan nan nan nan nan nan nan nan nan nan nan 17 18 20 17 nan 17 20 22 24 nan nan nan nan nan 29 29 30 31 34 36 38 nan nan nan nan nan nan nan nan nan nan nan nan nan nan
nan nan nan nan nan nan nan nan nan nan nan nan nan nan nan 18 19 nan nan 25 29 26 30 nan nan nan nan nan nan nan nan nan nan nan nan nan nan nan nan nan nan nan nan nan nan nan nan nan nan
nan nan nan nan nan nan nan nan nan nan nan nan nan nan nan 13 13 12 12 nan nan nan nan nan nan nan nan nan nan nan nan nan nan nan nan nan nan nan nan nan nan nan nan nan nan nan nan nan nan
nan nan nan nan nan nan nan nan nan nan nan nan nan nan nan nan nan nan nan nan nan nan nan nan nan nan nan nan nan nan nan nan nan nan nan nan nan nan nan nan nan nan nan nan nan nan nan nan nan
nan nan nan nan nan nan nan nan nan nan nan nan nan nan nan nan nan nan nan nan nan nan nan nan nan nan nan nan nan nan nan nan nan nan nan nan nan nan nan nan nan nan nan nan nan nan nan nan nan
nan nan nan nan nan nan nan nan nan nan nan nan nan nan nan nan nan nan nan nan nan nan nan nan nan nan nan nan nan nan nan nan nan nan nan nan nan nan nan nan nan nan nan nan nan nan nan nan nan
nan nan nan nan nan nan nan nan nan nan nan nan nan nan nan nan nan nan nan nan nan nan nan nan nan nan nan nan nan nan nan nan nan nan nan nan nan nan nan nan nan nan nan nan nan nan nan nan nan
nan nan nan nan nan nan nan nan nan nan nan nan nan nan nan nan nan nan nan nan nan nan nan nan nan nan nan nan nan nan nan nan nan nan nan nan nan nan nan nan nan nan nan nan nan nan nan nan nan
nan nan nan nan nan nan nan nan nan nan nan nan nan nan nan nan nan nan nan nan nan nan nan nan nan nan nan nan nan nan nan nan nan nan nan nan nan nan nan nan nan nan nan nan nan nan nan nan nan
nan nan nan nan nan nan nan nan nan nan nan nan nan nan nan nan nan nan nan nan nan nan nan nan nan nan nan nan nan nan nan nan nan nan nan nan nan nan nan nan nan nan nan nan nan nan nan nan nan
nan nan nan nan nan nan nan nan nan nan nan nan nan nan nan nan nan nan nan nan nan nan nan nan nan nan nan nan nan nan nan nan nan nan nan nan nan nan nan nan nan nan nan nan nan nan nan nan nan
nan nan nan nan nan nan nan nan nan nan nan nan nan nan nan nan nan nan nan nan nan nan nan nan nan nan nan nan nan nan nan nan nan nan nan nan nan nan nan nan nan nan nan nan nan nan nan nan nan
nan nan nan nan nan nan nan nan nan nan nan nan nan nan nan nan nan nan nan nan nan nan nan nan nan nan nan nan nan nan nan nan nan nan nan nan nan nan nan nan nan nan nan nan nan nan nan nan nan
nan nan nan nan nan nan nan nan nan nan nan nan nan nan nan nan nan nan nan nan nan nan nan nan nan nan nan nan nan nan nan nan nan nan nan nan nan nan nan nan nan nan nan nan nan nan nan nan nan
nan nan nan nan nan nan nan nan nan nan nan nan nan nan nan nan nan nan nan nan nan nan nan nan nan nan nan nan nan nan nan nan nan nan nan nan nan nan nan nan nan nan nan nan nan nan nan nan nan
nan nan nan nan nan nan nan nan nan nan nan nan nan nan nan nan nan nan nan nan nan nan nan nan nan nan nan nan nan nan nan nan nan nan nan nan nan nan nan nan nan nan nan nan nan nan nan nan nan
nan nan nan nan nan nan nan nan nan nan nan nan nan nan nan nan nan nan nan nan nan nan nan nan nan nan nan nan nan nan nan nan nan nan nan nan nan nan nan nan nan nan nan nan nan nan nan nan nan
Wind_Direction
nan nan nan nan nan nan nan nan nan nan nan nan nan nan 269 263 269 289 282 287 291 304 303 302 294 276 283 284 292 296 301 299 306 306 303 298 298 294 299 288 282 282 278 277 278 284 290 291 298
nan nan nan nan nan nan nan nan nan nan 260 261 247 249 250 266 274 284 289 297 300 301 302 300 297 287 289 284 279 280 286 294 296 300 297 298 302 301 290 286 285 287 284 274 274 276 282 275 276
nan nan nan nan nan nan nan nan 247 244 258 248 265 264 270 272 276 289 295 307 300 304 306 307 301 279 273 269 267 272 278 278 277 285 294 300 301 297 293 287 291 293 292 281 272 265 279 284 270
nan nan nan nan nan nan nan nan 256 264 263 262 270 263 266 275 288 297 305 303 297 295 293 294 286 287 286 285 284 283 282 285 289 287 291 291 292 291 293 292 289 291 286 286 279 277 273 269 263
nan nan nan nan nan nan nan nan nan nan 283 275 292 298 294 291 291 299 299 300 296 291 297 298 302 302 296 294 295 290 291 289 290 295 295 297 297 300 299 294 294 290 285 281 272 265 265 259 272
nan nan nan nan nan nan nan nan nan nan nan 308 277 295 305 311 312 323 314 312 312 302 300 299 304 300 299 301 297 298 291 292 294 292 287 290 293 294 294 296 291 287 277 272 272 275 272 267 262
nan nan nan nan nan nan nan nan nan nan nan nan 320 300 315 325 338 332 323 301 314 314 318 318 310 306 306 303 307 308 316 322 320 312 310 307 304 301 297 289 280 270 268 269 267 259 259 263 264
nan nan nan nan nan nan nan nan nan nan nan nan 323 347 11 44 28 21 17 14 15 10 3 357 348 337 328 342 354 344 343 338 327 320 319 311 306 304 301 300 305 304 297 289 281 272 267 268 268
nan nan nan nan nan nan nan nan nan nan nan nan nan 34 58 2 346 352 359 359 355 1 2 353 357 350 352 344 338 333 332 327 322 318 316 311 314 nan nan 305 301 297 292 nan nan nan 280 273 268
nan nan nan nan nan nan nan nan nan nan nan nan nan nan 38 354 356 357 360 0 354 356 8 357 353 347 338 336 329 327 326 325 322 320 319 316 314 308 nan nan nan nan nan nan nan nan nan nan nan
nan nan nan nan nan nan nan nan nan nan nan nan nan 9 352 12 359 359 358 348 354 352 351 354 349 342 336 333 327 323 323 324 324 326 326 322 317 313 nan nan nan nan nan nan nan nan nan nan nan
nan nan nan nan nan nan nan nan nan nan nan nan nan 352 345 344 351 351 355 349 340 344 349 345 336 333 336 329 330 325 322 320 319 320 320 316 314 nan nan nan nan nan nan nan nan nan nan nan nan
nan nan nan nan nan nan nan nan nan nan nan nan nan 352 356 345 350 341 340 318 326 338 337 334 324 325 321 320 317 317 317 316 316 316 314 nan nan nan nan nan nan nan nan nan nan nan nan nan nan
nan nan nan nan nan nan nan nan nan nan nan nan nan nan 356 349 349 321 nan 341 338 332 334 nan nan nan nan nan 318 316 311 308 308 310 310 nan nan nan nan nan nan nan nan nan nan nan nan nan nan
nan nan nan nan nan nan nan nan nan nan nan nan nan nan nan 357 334 nan nan 348 343 334 324 nan nan nan nan nan nan nan nan nan nan nan nan nan nan nan nan nan nan nan nan nan nan nan nan nan nan
nan nan nan nan nan nan nan nan nan nan nan nan nan nan nan 349 329 334 330 nan nan nan nan nan nan nan nan nan nan nan nan nan nan nan nan nan nan nan nan nan nan nan nan nan nan nan nan nan nan
nan nan nan nan nan nan nan nan nan nan nan nan nan nan nan nan nan nan nan nan nan nan nan nan nan nan nan nan nan nan nan nan nan nan nan nan nan nan nan nan nan nan nan nan nan nan nan nan nan
nan nan nan nan nan nan nan nan nan nan nan nan nan nan nan nan nan nan nan nan nan nan nan nan nan nan nan nan nan nan nan nan nan nan nan nan nan nan nan nan nan nan nan nan nan nan nan nan nan
nan nan nan nan nan nan nan nan nan nan nan nan nan nan nan nan nan nan nan nan nan nan nan nan nan nan nan nan nan nan nan nan nan nan nan nan nan nan nan nan nan nan nan nan nan nan nan nan nan
nan nan nan nan nan nan nan nan nan nan nan nan nan nan nan nan nan nan nan nan nan nan nan nan nan nan nan nan nan nan nan nan nan nan nan nan nan nan nan nan nan nan nan nan nan nan nan nan nan
nan nan nan nan nan nan nan nan nan nan nan nan nan nan nan nan nan nan nan nan nan nan nan nan nan nan nan nan nan nan nan nan nan nan nan nan nan nan nan nan nan nan nan nan nan nan nan nan nan
nan nan nan nan nan nan nan nan nan nan nan nan nan nan nan nan nan nan nan nan nan nan nan nan nan nan nan nan nan nan nan nan nan nan nan nan nan nan nan nan nan nan nan nan nan nan nan nan nan
nan nan nan nan nan nan nan nan nan nan nan nan nan nan nan nan nan nan nan nan nan nan nan nan nan nan nan nan nan nan nan nan nan nan nan nan nan nan nan nan nan nan nan nan nan nan nan nan nan
nan nan nan nan nan nan nan nan nan nan nan nan nan nan nan nan nan nan nan nan nan nan nan nan nan nan nan nan nan nan nan nan nan nan nan nan nan nan nan nan nan nan nan nan nan nan nan nan nan
nan nan nan nan nan nan nan nan nan nan nan nan nan nan nan nan nan nan nan nan nan nan nan nan nan nan nan nan nan nan nan nan nan nan nan nan nan nan nan nan nan nan nan nan nan nan nan nan nan
nan nan nan nan nan nan nan nan nan nan nan nan nan nan nan nan nan nan nan nan nan nan nan nan nan nan nan nan nan nan nan nan nan nan nan nan nan nan nan nan nan nan nan nan nan nan nan nan nan
nan nan nan nan nan nan nan nan nan nan nan nan nan nan nan nan nan nan nan nan nan nan nan nan nan nan nan nan nan nan nan nan nan nan nan nan nan nan nan nan nan nan nan nan nan nan nan nan nan
nan nan nan nan nan nan nan nan nan nan nan nan nan nan nan nan nan nan nan nan nan nan nan nan nan nan nan nan nan nan nan nan nan nan nan nan nan nan nan nan nan nan nan nan nan nan nan nan nan
nan nan nan nan nan nan nan nan nan nan nan nan nan nan nan nan nan nan nan nan nan nan nan nan nan nan nan nan nan nan nan nan nan nan nan nan nan nan nan nan nan nan nan nan nan nan nan nan nan
nan nan nan nan nan nan nan nan nan nan nan nan nan nan nan nan nan nan nan nan nan nan nan nan nan nan nan nan nan nan nan nan nan nan nan nan nan nan nan nan nan nan nan nan nan nan nan nan nan